| time (UTC) | temp F | wind direction | speed MPH | gust MPH | rain 1hr in | rain 24hr in | rain mn in | humidity % | barometer mb |
| 20260905190732 | 68 | 280 | 6.0 | 11.0 | 0.01 | 0.06 | 0.01 | 78 | 1013.2 |
| 20260905190232 | 68 | 280 | 1.0 | 11.0 | 0.01 | 0.06 | 0.01 | 79 | 1013.2 |
| 20260905185732 | 67 | 282 | 7.0 | 12.0 | 0.01 | 0.06 | 0.01 | 79 | 1013.2 |
| 20260905185232 | 67 | 257 | 6.0 | 12.0 | 0.01 | 0.06 | 0.01 | 80 | 1013.2 |
| 20260905184732 | 67 | 252 | 7.0 | 12.0 | 0.01 | 0.06 | 0.01 | 80 | 1013.2 |
| 20260905184232 | 67 | 273 | 6.0 | 12.0 | 0.01 | 0.06 | 0.01 | 81 | 1013.2 |
| 20260905183732 | 66 | 261 | 7.0 | 12.0 | 0.01 | 0.06 | 0.01 | 82 | 1013.2 |
| 20260905183232 | 66 | 281 | 7.0 | 12.0 | 0.01 | 0.05 | 0.01 | 84 | 1013.2 |
| 20260905182732 | 65 | 249 | 7.0 | 9.0 | 0.01 | 0.05 | 0.01 | 85 | 1013.1 |
| 20260905182232 | 65 | 268 | 6.0 | 9.0 | 0.00 | 0.05 | 0.00 | 84 | 1013.1 |
| 20260905181732 | 65 | 280 | 2.0 | 9.0 | 0.00 | 0.05 | 0.00 | 84 | 1013.1 |
| 20260905181232 | 65 | 282 | 4.0 | 8.0 | 0.00 | 0.05 | 0.00 | 84 | 1013.1 |
| 20260905180732 | 66 | 291 | 0.0 | 7.0 | 0.00 | 0.05 | 0.00 | 85 | 1013.1 |
| 20260905180232 | 66 | 246 | 3.0 | 6.0 | 0.00 | 0.05 | 0.00 | 86 | 1013.1 |
| 20260905175732 | 66 | 259 | 1.0 | 6.0 | 0.00 | 0.05 | 0.00 | 86 | 1013.1 |
| 20260905175236 | 66 | 275 | 1.0 | 6.0 | 0.00 | 0.05 | 0.00 | 87 | 1013.2 |
| 20260905174733 | 67 | 271 | 1.0 | 7.0 | 0.00 | 0.05 | 0.00 | 88 | 1013.2 |
| 20260905174232 | 67 | 210 | 0.0 | 7.0 | 0.00 | 0.05 | 0.00 | 89 | 1013.2 |
| 20260905173732 | 67 | 0 | 2.0 | 7.0 | 0.00 | 0.05 | 0.00 | 92 | 1013.1 |
| 20260905173232 | 66 | 256 | 0.0 | 7.0 | 0.00 | 0.05 | 0.00 | 96 | 1013.1 |
| 20260905172732 | 65 | 0 | 3.0 | 7.0 | 0.00 | 0.05 | 0.00 | 97 | 1013.1 |
| 20260905172232 | 64 | 238 | 0.0 | 7.0 | 0.00 | 0.05 | 0.00 | 97 | 1013.1 |
| 20260905171732 | 63 | 254 | 0.0 | 4.0 | 0.00 | 0.05 | 0.00 | 99 | 1013.0 |
| 20260905171232 | 63 | 0 | 0.0 | 0.0 | 0.00 | 0.05 | 0.00 | 99 | 1013.0 |
| 20260905170732 | 63 | 0 | 0.0 | 0.0 | 0.00 | 0.05 | 0.00 | 100 | 1013.0 |
| 20260905170232 | 62 | 0 | 0.0 | 0.0 | 0.00 | 0.05 | 0.00 | 100 | 1012.9 |
| 20260905165732 | 62 | 0 | 0.0 | 0.0 | 0.00 | 0.05 | 0.00 | 100 | 1013.0 |
| 20260905165232 | 62 | 0 | 0.0 | 0.0 | 0.00 | 0.05 | 0.00 | 100 | 1013.0 |
| 20260905164732 | 62 | 0 | 0.0 | 0.0 | 0.00 | 0.05 | 0.00 | 100 | 1012.9 |
| 20260905164232 | 61 | 0 | 0.0 | 0.0 | 0.00 | 0.05 | 0.00 | 100 | 1013.0 |
| 20260905163732 | 61 | 0 | 0.0 | 0.0 | 0.00 | 0.05 | 0.00 | 100 | 1012.9 |
| 20260905163232 | 60 | 0 | 0.0 | 0.0 | 0.00 | 0.05 | 0.00 | 100 | 1012.9 |
| 20260905162732 | 59 | 0 | 0.0 | 0.0 | 0.00 | 0.05 | 0.00 | 100 | 1012.9 |
| 20260905162232 | 59 | 0 | 0.0 | 0.0 | 0.00 | 0.05 | 0.00 | 100 | 1012.9 |
| 20260905161732 | 58 | 0 | 0.0 | 0.0 | 0.00 | 0.05 | 0.00 | 100 | 1013.0 |
| 20260905161232 | 58 | 0 | 0.0 | 0.0 | 0.00 | 0.05 | 0.00 | 100 | 1013.0 |
| 20260905160732 | 58 | 0 | 0.0 | 0.0 | 0.00 | 0.05 | 0.00 | 100 | 1013.0 |
| 20260905160232 | 58 | 0 | 0.0 | 0.0 | 0.00 | 0.05 | 0.00 | 100 | 1013.0 |
| 20260905155732 | 57 | 0 | 0.0 | 0.0 | 0.00 | 0.05 | 0.00 | 100 | 1013.0 |
| 20260905155232 | 57 | 0 | 0.0 | 0.0 | 0.00 | 0.05 | 0.00 | 100 | 1012.9 |
| 20260905154732 | 57 | 0 | 0.0 | 0.0 | 0.00 | 0.05 | 0.00 | 100 | 1013.0 |
| 20260905154232 | 57 | 0 | 0.0 | 0.0 | 0.00 | 0.05 | 0.00 | 100 | 1013.0 |
| 20260905153732 | 57 | 0 | 0.0 | 0.0 | 0.00 | 0.05 | 0.00 | 100 | 1013.1 |
| 20260905153232 | 58 | 0 | 0.0 | 0.0 | 0.00 | 0.05 | 0.00 | 100 | 1013.0 |
| 20260905152732 | 57 | 0 | 0.0 | 0.0 | 0.00 | 0.05 | 0.00 | 100 | 1013.0 |
| 20260905152233 | 57 | 0 | 0.0 | 0.0 | 0.00 | 0.05 | 0.00 | 100 | 1013.0 |
| 20260905151732 | 57 | 0 | 0.0 | 0.0 | 0.00 | 0.05 | 0.00 | 100 | 1013.0 |
| 20260905151232 | 57 | 0 | 0.0 | 0.0 | 0.00 | 0.05 | 0.00 | 100 | 1013.0 |
| 20260905150732 | 57 | 0 | 0.0 | 0.0 | 0.00 | 0.05 | 0.00 | 100 | 1012.9 |
| 20260905150232 | 57 | 0 | 0.0 | 0.0 | 0.00 | 0.05 | 0.00 | 100 | 1012.9 |
| 20260905145732 | 57 | 0 | 0.0 | 0.0 | 0.00 | 0.05 | 0.00 | 100 | 1012.9 |
| 20260905145232 | 57 | 0 | 0.0 | 0.0 | 0.00 | 0.05 | 0.00 | 100 | 1012.9 |
| 20260905144732 | 57 | 0 | 0.0 | 0.0 | 0.00 | 0.05 | 0.00 | 100 | 1012.9 |
| 20260905144232 | 57 | 0 | 0.0 | 0.0 | 0.00 | 0.05 | 0.00 | 100 | 1012.9 |
| 20260905143732 | 57 | 0 | 0.0 | 0.0 | 0.00 | 0.05 | 0.00 | 100 | 1012.9 |
| 20260905143232 | 57 | 0 | 0.0 | 0.0 | 0.00 | 0.05 | 0.00 | 100 | 1012.8 |
| 20260905142733 | 57 | 0 | 0.0 | 0.0 | 0.00 | 0.05 | 0.00 | 100 | 1012.9 |
| 20260905142232 | 57 | 0 | 0.0 | 0.0 | 0.00 | 0.05 | 0.00 | 100 | 1012.9 |
| 20260905141732 | 57 | 0 | 0.0 | 0.0 | 0.00 | 0.05 | 0.00 | 100 | 1012.8 |
| 20260905141232 | 56 | 0 | 0.0 | 0.0 | 0.00 | 0.05 | 0.00 | 100 | 1012.8 |
| 20260905140732 | 56 | 0 | 0.0 | 0.0 | 0.00 | 0.05 | 0.00 | 100 | 1012.8 |
| 20260905140232 | 56 | 0 | 0.0 | 0.0 | 0.00 | 0.05 | 0.00 | 100 | 1012.7 |
| 20260905135732 | 56 | 0 | 0.0 | 0.0 | 0.00 | 0.05 | 0.00 | 100 | 1012.7 |
| 20260905135232 | 56 | 0 | 0.0 | 0.0 | 0.00 | 0.05 | 0.00 | 100 | 1012.6 |
| 20260905134732 | 56 | 0 | 0.0 | 0.0 | 0.00 | 0.05 | 0.00 | 100 | 1012.6 |
| 20260905134232 | 56 | 0 | 0.0 | 0.0 | 0.00 | 0.05 | 0.00 | 100 | 1012.6 |
| 20260905133732 | 56 | 0 | 0.0 | 0.0 | 0.00 | 0.05 | 0.00 | 100 | 1012.5 |
| 20260905133232 | 56 | 0 | 0.0 | 0.0 | 0.00 | 0.05 | 0.00 | 100 | 1012.5 |
| 20260905132732 | 56 | 0 | 0.0 | 0.0 | 0.00 | 0.05 | 0.00 | 100 | 1012.5 |
| 20260905132234 | 56 | 0 | 0.0 | 0.0 | 0.00 | 0.05 | 0.00 | 100 | 1012.5 |
| 20260905131732 | 56 | 0 | 0.0 | 0.0 | 0.00 | 0.05 | 0.00 | 100 | 1012.5 |
| 20260905131232 | 56 | 0 | 0.0 | 0.0 | 0.00 | 0.05 | 0.00 | 100 | 1012.5 |
| 20260905130732 | 56 | 0 | 0.0 | 0.0 | 0.00 | 0.05 | 0.00 | 100 | 1012.5 |
| 20260905130232 | 56 | 0 | 0.0 | 0.0 | 0.00 | 0.05 | 0.00 | 100 | 1012.4 |
| 20260905125732 | 56 | 0 | 0.0 | 0.0 | 0.00 | 0.05 | 0.00 | 100 | 1012.4 |
| 20260905125232 | 56 | 0 | 0.0 | 0.0 | 0.00 | 0.05 | 0.00 | 100 | 1012.4 |
| 20260905124732 | 56 | 0 | 0.0 | 0.0 | 0.00 | 0.05 | 0.00 | 100 | 1012.4 |
| 20260905124232 | 56 | 0 | 0.0 | 0.0 | 0.00 | 0.05 | 0.00 | 100 | 1012.4 |
| 20260905123732 | 56 | 0 | 0.0 | 0.0 | 0.00 | 0.05 | 0.00 | 100 | 1012.3 |
| 20260905123232 | 56 | 0 | 0.0 | 0.0 | 0.00 | 0.05 | 0.00 | 100 | 1012.3 |
| 20260905122732 | 56 | 0 | 0.0 | 0.0 | 0.00 | 0.05 | 0.00 | 100 | 1012.3 |
| 20260905122232 | 56 | 0 | 0.0 | 0.0 | 0.00 | 0.05 | 0.00 | 100 | 1012.2 |
| 20260905121732 | 56 | 0 | 0.0 | 0.0 | 0.00 | 0.05 | 0.00 | 100 | 1012.2 |
| 20260905121232 | 56 | 0 | 0.0 | 0.0 | 0.00 | 0.05 | 0.00 | 100 | 1012.3 |
| 20260905120732 | 56 | 0 | 0.0 | 0.0 | 0.00 | 0.05 | 0.00 | 100 | 1012.2 |
| 20260905120232 | 56 | 0 | 0.0 | 0.0 | 0.00 | 0.05 | 0.00 | 100 | 1012.2 |
| 20260905115732 | 56 | 0 | 0.0 | 0.0 | 0.00 | 0.05 | 0.00 | 100 | 1012.1 |
| 20260905115232 | 56 | 0 | 0.0 | 0.0 | 0.00 | 0.05 | 0.00 | 100 | 1012.2 |
| 20260905114732 | 56 | 0 | 0.0 | 0.0 | 0.00 | 0.05 | 0.00 | 100 | 1012.2 |
| 20260905114232 | 56 | 0 | 0.0 | 0.0 | 0.00 | 0.05 | 0.00 | 100 | 1012.1 |
| 20260905113732 | 56 | 0 | 0.0 | 0.0 | 0.00 | 0.05 | 0.00 | 100 | 1012.1 |
| 20260905113232 | 56 | 0 | 0.0 | 0.0 | 0.00 | 0.05 | 0.00 | 100 | 1012.1 |
| 20260905112732 | 56 | 0 | 0.0 | 0.0 | 0.00 | 0.05 | 0.00 | 100 | 1012.0 |
| 20260905112233 | 56 | 0 | 0.0 | 0.0 | 0.00 | 0.05 | 0.00 | 100 | 1012.0 |
| 20260905111732 | 56 | 0 | 0.0 | 0.0 | 0.00 | 0.05 | 0.00 | 100 | 1012.1 |
| 20260905111232 | 56 | 0 | 0.0 | 0.0 | 0.00 | 0.05 | 0.00 | 100 | 1012.1 |
| 20260905110732 | 56 | 0 | 0.0 | 0.0 | 0.00 | 0.05 | 0.00 | 100 | 1012.1 |
| 20260905110232 | 56 | 0 | 0.0 | 0.0 | 0.00 | 0.05 | 0.00 | 100 | 1012.2 |
| 20260905105732 | 56 | 0 | 0.0 | 0.0 | 0.00 | 0.05 | 0.00 | 100 | 1012.2 |
| 20260905105232 | 56 | 0 | 0.0 | 0.0 | 0.00 | 0.05 | 0.00 | 100 | 1012.2 |
| 20260905104732 | 56 | 0 | 0.0 | 0.0 | 0.00 | 0.05 | 0.00 | 100 | 1012.2 |
| 20260905104232 | 56 | 0 | 0.0 | 0.0 | 0.00 | 0.05 | 0.00 | 100 | 1012.2 |
| 20260905103732 | 56 | 0 | 0.0 | 0.0 | 0.00 | 0.05 | 0.00 | 100 | 1012.2 |
| 20260905103232 | 56 | 0 | 0.0 | 0.0 | 0.00 | 0.05 | 0.00 | 100 | 1012.2 |
| 20260905102732 | 57 | 0 | 0.0 | 0.0 | 0.00 | 0.05 | 0.00 | 100 | 1012.1 |
| 20260905102233 | 56 | 0 | 0.0 | 0.0 | 0.00 | 0.05 | 0.00 | 100 | 1012.2 |
| 20260905101732 | 57 | 0 | 0.0 | 0.0 | 0.00 | 0.05 | 0.00 | 100 | 1012.2 |
| 20260905101232 | 57 | 0 | 0.0 | 0.0 | 0.00 | 0.05 | 0.00 | 100 | 1012.1 |
| 20260905100732 | 57 | 0 | 0.0 | 0.0 | 0.00 | 0.05 | 0.00 | 100 | 1012.2 |
| 20260905100232 | 57 | 0 | 0.0 | 0.0 | 0.00 | 0.05 | 0.00 | 100 | 1012.2 |
| 20260905095732 | 57 | 0 | 0.0 | 0.0 | 0.00 | 0.05 | 0.00 | 100 | 1012.2 |
| 20260905095232 | 57 | 0 | 0.0 | 0.0 | 0.00 | 0.05 | 0.00 | 100 | 1012.2 |
| 20260905094732 | 57 | 0 | 0.0 | 0.0 | 0.00 | 0.05 | 0.00 | 100 | 1012.1 |
| 20260905094232 | 56 | 0 | 0.0 | 0.0 | 0.00 | 0.05 | 0.00 | 100 | 1012.1 |
| 20260905093731 | 56 | 0 | 0.0 | 0.0 | 0.00 | 0.05 | 0.00 | 100 | 1012.0 |
| 20260905093231 | 56 | 0 | 0.0 | 0.0 | 0.00 | 0.05 | 0.00 | 100 | 1012.1 |
| 20260905092731 | 56 | 0 | 0.0 | 0.0 | 0.00 | 0.05 | 0.00 | 100 | 1012.1 |
| 20260905092232 | 56 | 0 | 0.0 | 0.0 | 0.00 | 0.05 | 0.00 | 100 | 1012.0 |
| 20260905091732 | 56 | 0 | 0.0 | 0.0 | 0.00 | 0.05 | 0.00 | 100 | 1012.0 |
| 20260905091232 | 56 | 0 | 0.0 | 0.0 | 0.00 | 0.05 | 0.00 | 100 | 1012.0 |
| 20260905090732 | 56 | 0 | 0.0 | 0.0 | 0.00 | 0.05 | 0.00 | 100 | 1012.0 |
| 20260905090231 | 56 | 0 | 0.0 | 0.0 | 0.00 | 0.05 | 0.00 | 100 | 1012.0 |
| 20260905085732 | 56 | 0 | 0.0 | 0.0 | 0.00 | 0.05 | 0.00 | 100 | 1011.9 |
| 20260905085232 | 56 | 0 | 0.0 | 0.0 | 0.00 | 0.05 | 0.00 | 100 | 1011.9 |
| 20260905084731 | 56 | 0 | 0.0 | 0.0 | 0.00 | 0.05 | 0.00 | 100 | 1011.9 |
| 20260905084231 | 56 | 0 | 0.0 | 0.0 | 0.00 | 0.05 | 0.00 | 100 | 1011.9 |
| 20260905083731 | 56 | 0 | 0.0 | 0.0 | 0.00 | 0.05 | 0.00 | 99 | 1011.9 |
| 20260905083232 | 56 | 0 | 0.0 | 0.0 | 0.00 | 0.05 | 0.00 | 99 | 1011.9 |
| 20260905082731 | 56 | 0 | 0.0 | 0.0 | 0.00 | 0.05 | 0.00 | 99 | 1011.8 |
| 20260905082233 | 56 | 0 | 0.0 | 0.0 | 0.00 | 0.05 | 0.00 | 99 | 1011.7 |
| 20260905081731 | 56 | 0 | 0.0 | 0.0 | 0.00 | 0.05 | 0.00 | 99 | 1011.8 |
| 20260905081231 | 56 | 0 | 0.0 | 0.0 | 0.00 | 0.05 | 0.00 | 99 | 1011.7 |
| 20260905080731 | 56 | 0 | 0.0 | 0.0 | 0.00 | 0.05 | 0.00 | 99 | 1011.7 |
| 20260905080231 | 56 | 0 | 0.0 | 0.0 | 0.00 | 0.05 | 0.00 | 99 | 1011.7 |
| 20260905075731 | 57 | 0 | 0.0 | 0.0 | 0.00 | 0.05 | 0.00 | 99 | 1011.6 |
| 20260905075231 | 57 | 0 | 0.0 | 0.0 | 0.00 | 0.05 | 0.00 | 99 | 1011.6 |
| 20260905074732 | 57 | 0 | 0.0 | 0.0 | 0.00 | 0.05 | 0.00 | 99 | 1011.5 |
| 20260905074232 | 57 | 0 | 0.0 | 0.0 | 0.00 | 0.05 | 0.00 | 99 | 1011.6 |
| 20260905073731 | 57 | 0 | 0.0 | 0.0 | 0.00 | 0.05 | 0.00 | 99 | 1011.6 |
| 20260905073231 | 57 | 0 | 0.0 | 0.0 | 0.00 | 0.05 | 0.00 | 99 | 1011.5 |
| 20260905072731 | 57 | 0 | 0.0 | 0.0 | 0.00 | 0.05 | 0.00 | 99 | 1011.5 |
| 20260905072234 | 57 | 0 | 0.0 | 0.0 | 0.00 | 0.05 | 0.00 | 99 | 1011.5 |
| 20260905071731 | 57 | 0 | 0.0 | 0.0 | 0.00 | 0.05 | 0.00 | 99 | 1011.4 |
| 20260905071231 | 57 | 0 | 0.0 | 0.0 | 0.00 | 0.05 | 0.00 | 99 | 1011.3 |
| 20260905070731 | 57 | 0 | 0.0 | 0.0 | 0.00 | 0.05 | 0.00 | 99 | 1011.4 |
| 20260905070231 | 57 | 0 | 0.0 | 0.0 | 0.00 | 0.05 | 0.00 | 99 | 1011.4 |
| 20260905065731 | 57 | 0 | 0.0 | 0.0 | 0.00 | 0.05 | 0.00 | 99 | 1011.3 |
| 20260905065231 | 57 | 0 | 0.0 | 0.0 | 0.00 | 0.05 | 0.00 | 99 | 1011.3 |
| 20260905064731 | 57 | 0 | 0.0 | 0.0 | 0.00 | 0.05 | 0.00 | 99 | 1011.3 |
| 20260905064231 | 58 | 0 | 0.0 | 0.0 | 0.00 | 0.05 | 0.00 | 99 | 1011.2 |
| 20260905063731 | 58 | 0 | 0.0 | 0.0 | 0.00 | 0.05 | 0.00 | 99 | 1011.2 |
| 20260905063231 | 58 | 0 | 0.0 | 0.0 | 0.00 | 0.05 | 0.00 | 99 | 1011.2 |
| 20260905062731 | 57 | 0 | 0.0 | 0.0 | 0.00 | 0.05 | 0.00 | 99 | 1011.2 |
| 20260905062233 | 58 | 0 | 0.0 | 0.0 | 0.00 | 0.05 | 0.00 | 99 | 1011.1 |
| 20260905061731 | 58 | 0 | 0.0 | 0.0 | 0.00 | 0.05 | 0.00 | 99 | 1011.1 |
| 20260905061231 | 58 | 0 | 0.0 | 0.0 | 0.00 | 0.05 | 0.00 | 99 | 1011.0 |
| 20260905060731 | 58 | 0 | 0.0 | 0.0 | 0.00 | 0.05 | 0.00 | 99 | 1011.1 |
| 20260905060231 | 58 | 0 | 0.0 | 0.0 | 0.00 | 0.05 | 0.00 | 99 | 1011.1 |
| 20260905055732 | 58 | 0 | 0.0 | 0.0 | 0.00 | 0.05 | 0.00 | 99 | 1011.1 |
| 20260905055231 | 58 | 0 | 0.0 | 0.0 | 0.00 | 0.05 | 0.00 | 99 | 1011.1 |
| 20260905054731 | 58 | 0 | 0.0 | 0.0 | 0.00 | 0.05 | 0.00 | 98 | 1011.1 |
| 20260905054231 | 58 | 0 | 0.0 | 0.0 | 0.00 | 0.05 | 0.00 | 98 | 1011.1 |
| 20260905053731 | 58 | 0 | 0.0 | 0.0 | 0.00 | 0.05 | 0.00 | 98 | 1011.2 |
| 20260905053231 | 58 | 0 | 0.0 | 0.0 | 0.00 | 0.05 | 0.00 | 98 | 1011.2 |
| 20260905052731 | 58 | 0 | 0.0 | 0.0 | 0.00 | 0.05 | 0.00 | 98 | 1011.2 |
| 20260905052233 | 58 | 0 | 0.0 | 0.0 | 0.00 | 0.05 | 0.00 | 98 | 1011.2 |
| 20260905051731 | 58 | 0 | 0.0 | 0.0 | 0.00 | 0.05 | 0.00 | 98 | 1011.1 |
| 20260905051231 | 58 | 0 | 0.0 | 0.0 | 0.00 | 0.05 | 0.00 | 98 | 1011.1 |
| 20260905050731 | 58 | 0 | 0.0 | 0.0 | 0.00 | 0.05 | 0.00 | 98 | 1011.1 |
| 20260905050231 | 58 | 0 | 0.0 | 0.0 | 0.00 | 0.05 | 0.00 | 97 | 1011.1 |
| 20260905045731 | 58 | 0 | 0.0 | 0.0 | 0.00 | 0.05 | 0.00 | 97 | 1011.1 |
| 20260905045231 | 58 | 0 | 0.0 | 0.0 | 0.00 | 0.05 | 0.00 | 96 | 1011.1 |
| 20260905044731 | 58 | 0 | 0.0 | 0.0 | 0.00 | 0.05 | 0.00 | 96 | 1011.1 |
| 20260905044231 | 58 | 0 | 0.0 | 0.0 | 0.00 | 0.05 | 0.00 | 96 | 1011.0 |
| 20260905043731 | 59 | 0 | 0.0 | 0.0 | 0.00 | 0.05 | 0.00 | 96 | 1011.1 |
| 20260905043231 | 59 | 0 | 0.0 | 0.0 | 0.00 | 0.15 | 0.00 | 96 | 1011.0 |
| 20260905042731 | 59 | 0 | 0.0 | 0.0 | 0.00 | 0.15 | 0.00 | 96 | 1011.0 |
| 20260905042233 | 59 | 0 | 0.0 | 0.0 | 0.00 | 0.15 | 0.00 | 96 | 1011.0 |
| 20260905041731 | 59 | 0 | 0.0 | 0.0 | 0.00 | 0.15 | 0.00 | 96 | 1010.8 |
| 20260905041231 | 59 | 0 | 0.0 | 0.0 | 0.00 | 0.15 | 0.00 | 96 | 1010.8 |
| 20260905040731 | 59 | 0 | 0.0 | 0.0 | 0.00 | 0.15 | 0.00 | 96 | 1010.7 |
| 20260905040231 | 59 | 0 | 0.0 | 0.0 | 0.00 | 0.15 | 0.00 | 96 | 1010.7 |
| 20260905035731 | 59 | 0 | 0.0 | 0.0 | 0.00 | 0.15 | 0.00 | 96 | 1010.6 |
| 20260905035231 | 59 | 0 | 0.0 | 0.0 | 0.00 | 0.15 | 0.00 | 96 | 1010.6 |
| 20260905034732 | 59 | 0 | 0.0 | 0.0 | 0.00 | 0.15 | 0.00 | 95 | 1010.5 |
| 20260905034231 | 59 | 0 | 0.0 | 0.0 | 0.00 | 0.15 | 0.00 | 95 | 1010.4 |
| 20260905033731 | 59 | 0 | 0.0 | 0.0 | 0.00 | 0.15 | 0.00 | 95 | 1010.4 |
| 20260905033231 | 59 | 0 | 0.0 | 0.0 | 0.00 | 0.19 | 0.00 | 95 | 1010.3 |
| 20260905032731 | 59 | 0 | 0.0 | 0.0 | 0.00 | 0.19 | 0.00 | 95 | 1010.3 |
| 20260905032231 | 60 | 0 | 0.0 | 0.0 | 0.00 | 0.19 | 0.00 | 95 | 1010.2 |
| 20260905031733 | 60 | 0 | 0.0 | 0.0 | 0.00 | 0.19 | 0.00 | 95 | 1010.2 |
| 20260905031231 | 60 | 0 | 0.0 | 0.0 | 0.00 | 0.19 | 0.00 | 95 | 1010.1 |
| 20260905030731 | 60 | 0 | 0.0 | 0.0 | 0.00 | 0.19 | 0.00 | 94 | 1010.2 |
| 20260905030231 | 60 | 0 | 0.0 | 0.0 | 0.00 | 0.19 | 0.00 | 94 | 1010.2 |
| 20260905025731 | 60 | 0 | 0.0 | 0.0 | 0.00 | 0.19 | 0.00 | 94 | 1010.2 |
| 20260905025231 | 60 | 0 | 0.0 | 0.0 | 0.00 | 0.19 | 0.00 | 94 | 1010.1 |
| 20260905024731 | 60 | 0 | 0.0 | 0.0 | 0.00 | 0.19 | 0.00 | 93 | 1010.1 |
| 20260905024231 | 61 | 0 | 0.0 | 0.0 | 0.00 | 0.19 | 0.00 | 93 | 1010.2 |
| 20260905023731 | 61 | 0 | 0.0 | 0.0 | 0.00 | 0.19 | 0.00 | 93 | 1010.2 |
| 20260905023231 | 61 | 0 | 0.0 | 0.0 | 0.00 | 0.23 | 0.00 | 93 | 1010.3 |
| 20260905022731 | 61 | 0 | 0.0 | 0.0 | 0.00 | 0.23 | 0.00 | 93 | 1010.3 |
| 20260905022233 | 61 | 0 | 0.0 | 0.0 | 0.00 | 0.23 | 0.00 | 92 | 1010.4 |
| 20260905021731 | 61 | 0 | 0.0 | 0.0 | 0.00 | 0.23 | 0.00 | 92 | 1010.3 |
| 20260905021231 | 61 | 0 | 0.0 | 0.0 | 0.00 | 0.23 | 0.00 | 92 | 1010.4 |
| 20260905020731 | 61 | 0 | 0.0 | 0.0 | 0.00 | 0.23 | 0.00 | 91 | 1010.3 |
| 20260905020231 | 60 | 0 | 0.0 | 0.0 | 0.00 | 0.23 | 0.00 | 91 | 1010.3 |
| 20260905015731 | 60 | 0 | 0.0 | 0.0 | 0.00 | 0.23 | 0.00 | 90 | 1010.2 |
| 20260905015231 | 61 | 0 | 0.0 | 0.0 | 0.00 | 0.23 | 0.00 | 90 | 1010.2 |
| 20260905014733 | 61 | 0 | 0.0 | 0.0 | 0.00 | 0.23 | 0.00 | 90 | 1010.1 |
| 20260905014231 | 61 | 0 | 0.0 | 0.0 | 0.00 | 0.23 | 0.00 | 89 | 1010.1 |
| 20260905013731 | 61 | 0 | 0.0 | 0.0 | 0.00 | 0.23 | 0.00 | 89 | 1010.1 |
| 20260905013231 | 62 | 0 | 0.0 | 0.0 | 0.00 | 0.23 | 0.00 | 89 | 1010.1 |
| 20260905012731 | 62 | 0 | 0.0 | 0.0 | 0.00 | 0.23 | 0.00 | 89 | 1010.0 |
| 20260905012234 | 62 | 0 | 0.0 | 0.0 | 0.00 | 0.23 | 0.00 | 90 | 1010.0 |
| 20260905011731 | 62 | 0 | 0.0 | 0.0 | 0.00 | 0.23 | 0.00 | 91 | 1010.0 |
| 20260905011231 | 62 | 0 | 0.0 | 0.0 | 0.00 | 0.23 | 0.00 | 92 | 1009.9 |
| 20260905010731 | 62 | 0 | 0.0 | 0.0 | 0.00 | 0.23 | 0.00 | 92 | 1009.9 |
| 20260905010231 | 62 | 0 | 0.0 | 0.0 | 0.00 | 0.23 | 0.00 | 92 | 1009.9 |
| 20260905005731 | 61 | 0 | 0.0 | 0.0 | 0.00 | 0.23 | 0.00 | 92 | 1009.9 |
| 20260905005231 | 61 | 0 | 0.0 | 0.0 | 0.00 | 0.23 | 0.00 | 91 | 1009.9 |
| 20260905004731 | 61 | 0 | 0.0 | 0.0 | 0.00 | 0.23 | 0.00 | 91 | 1009.9 |
| 20260905004231 | 61 | 0 | 0.0 | 0.0 | 0.00 | 0.23 | 0.00 | 91 | 1009.8 |
| 20260905003731 | 61 | 0 | 0.0 | 0.0 | 0.00 | 0.23 | 0.00 | 92 | 1009.8 |
| 20260905003231 | 61 | 0 | 0.0 | 0.0 | 0.00 | 0.23 | 0.00 | 91 | 1009.8 |
| 20260905002731 | 61 | 0 | 0.0 | 0.0 | 0.00 | 0.23 | 0.00 | 91 | 1009.8 |
| 20260905002235 | 61 | 0 | 0.0 | 0.0 | 0.00 | 0.23 | 0.00 | 91 | 1009.8 |
| 20260905001731 | 61 | 0 | 0.0 | 0.0 | 0.00 | 0.23 | 0.00 | 90 | 1009.8 |
| 20260905001231 | 61 | 0 | 0.0 | 4.0 | 0.00 | 0.23 | 0.00 | 89 | 1009.7 |
| 20260905000731 | 61 | 0 | 0.0 | 4.0 | 0.00 | 0.23 | 0.00 | 89 | 1009.8 |
| 20260905000233 | 62 | 57 | 0.0 | 4.0 | 0.01 | 0.23 | 0.00 | 88 | 1009.7 |
| 20260904235731 | 62 | 0 | 0.0 | 0.0 | 0.01 | 0.23 | 0.00 | 88 | 1009.6 |
| 20260904235231 | 62 | 0 | 0.0 | 0.0 | 0.01 | 0.23 | 0.00 | 87 | 1009.6 |
| 20260904234731 | 63 | 0 | 0.0 | 0.0 | 0.01 | 0.23 | 0.00 | 87 | 1009.5 |
| 20260904234231 | 63 | 0 | 0.0 | 0.0 | 0.01 | 0.23 | 0.00 | 87 | 1009.5 |
| 20260904233731 | 63 | 0 | 0.0 | 0.0 | 0.01 | 0.23 | 0.00 | 87 | 1009.5 |
| 20260904233231 | 63 | 0 | 0.0 | 2.0 | 0.03 | 0.26 | 0.00 | 87 | 1009.5 |
| 20260904232731 | 63 | 0 | 0.0 | 2.0 | 0.03 | 0.26 | 0.23 | 87 | 1009.5 |
| 20260904232233 | 63 | 333 | 0.0 | 2.0 | 0.04 | 0.26 | 0.23 | 88 | 1009.5 |
| 20260904231731 | 63 | 0 | 0.0 | 0.0 | 0.04 | 0.26 | 0.23 | 87 | 1009.4 |
| 20260904231231 | 63 | 0 | 0.0 | 0.0 | 0.04 | 0.26 | 0.23 | 87 | 1009.4 |
| 20260904230732 | 63 | 0 | 0.0 | 0.0 | 0.04 | 0.26 | 0.23 | 87 | 1009.4 |
| 20260904230231 | 63 | 0 | 0.0 | 0.0 | 0.03 | 0.26 | 0.23 | 87 | 1009.4 |
| 20260904225731 | 63 | 0 | 0.0 | 0.0 | 0.03 | 0.26 | 0.22 | 87 | 1009.3 |
| 20260904225231 | 63 | 0 | 0.0 | 0.0 | 0.03 | 0.26 | 0.22 | 86 | 1009.4 |
| 20260904224731 | 63 | 0 | 0.0 | 0.0 | 0.03 | 0.26 | 0.22 | 86 | 1009.3 |
| 20260904224231 | 63 | 0 | 0.0 | 0.0 | 0.03 | 0.26 | 0.22 | 86 | 1009.3 |
| 20260904223732 | 63 | 0 | 0.0 | 4.0 | 0.03 | 0.26 | 0.22 | 85 | 1009.2 |
| 20260904223231 | 64 | 0 | 0.0 | 4.0 | 0.02 | 0.27 | 0.21 | 85 | 1009.2 |
| 20260904222731 | 64 | 341 | 0.0 | 4.0 | 0.02 | 0.27 | 0.20 | 85 | 1009.1 |
| 20260904222231 | 64 | 334 | 0.0 | 3.0 | 0.01 | 0.27 | 0.19 | 84 | 1009.0 |
| 20260904221731 | 64 | 0 | 0.0 | 0.0 | 0.01 | 0.27 | 0.19 | 83 | 1009.1 |
| 20260904221231 | 64 | 0 | 0.0 | 0.0 | 0.01 | 0.27 | 0.19 | 82 | 1009.0 |
| 20260904220731 | 65 | 0 | 0.0 | 5.0 | 0.01 | 0.27 | 0.19 | 83 | 1009.0 |
| 20260904220231 | 65 | 350 | 0.0 | 5.0 | 0.01 | 0.27 | 0.19 | 83 | 1008.9 |
| 20260904215731 | 65 | 334 | 0.0 | 5.0 | 0.01 | 0.27 | 0.19 | 84 | 1008.9 |
| 20260904215231 | 64 | 338 | 0.0 | 7.0 | 0.01 | 0.27 | 0.19 | 83 | 1008.9 |
| 20260904214731 | 64 | 329 | 1.0 | 7.0 | 0.01 | 0.27 | 0.19 | 83 | 1008.8 |
| 20260904214231 | 64 | 347 | 0.0 | 7.0 | 0.01 | 0.27 | 0.19 | 83 | 1008.7 |
| 20260904213731 | 64 | 331 | 3.0 | 6.0 | 0.01 | 0.27 | 0.19 | 83 | 1008.7 |
| 20260904213231 | 64 | 334 | 2.0 | 7.0 | 0.00 | 0.33 | 0.19 | 82 | 1008.7 |
| 20260904212731 | 64 | 333 | 0.0 | 7.0 | 0.00 | 0.33 | 0.18 | 81 | 1008.7 |
| 20260904212233 | 64 | 345 | 0.0 | 7.0 | 0.00 | 0.33 | 0.18 | 81 | 1008.6 |
| 20260904211731 | 64 | 348 | 2.0 | 8.0 | 0.00 | 0.33 | 0.18 | 80 | 1008.5 |
| 20260904211231 | 64 | 333 | 1.0 | 8.0 | 0.00 | 0.33 | 0.18 | 80 | 1008.5 |
| 20260904210731 | 64 | 350 | 2.0 | 8.0 | 0.00 | 0.33 | 0.18 | 78 | 1008.4 |
| 20260904210231 | 64 | 341 | 1.0 | 8.0 | 0.00 | 0.33 | 0.18 | 77 | 1008.3 |
| 20260904205731 | 64 | 336 | 4.0 | 9.0 | 0.00 | 0.33 | 0.18 | 77 | 1008.4 |
| 20260904205231 | 65 | 352 | 5.0 | 9.0 | 0.00 | 0.33 | 0.18 | 76 | 1008.4 |
| 20260904204731 | 65 | 341 | 3.0 | 9.0 | 0.00 | 0.33 | 0.18 | 76 | 1008.3 |
| 20260904204231 | 66 | 330 | 5.0 | 9.0 | 0.00 | 0.33 | 0.18 | 76 | 1008.2 |
| 20260904203731 | 66 | 343 | 2.0 | 7.0 | 0.00 | 0.33 | 0.18 | 77 | 1008.2 |
| 20260904203231 | 66 | 334 | 3.0 | 7.0 | 0.00 | 0.33 | 0.18 | 77 | 1008.1 |
| 20260904202731 | 66 | 329 | 3.0 | 7.0 | 0.00 | 0.33 | 0.18 | 76 | 1008.1 |
| 20260904202233 | 66 | 338 | 3.0 | 10.0 | 0.00 | 0.33 | 0.18 | 76 | 1008.0 |
| 20260904201731 | 66 | 348 | 4.0 | 10.0 | 0.00 | 0.33 | 0.18 | 75 | 1008.0 |
| 20260904201231 | 67 | 357 | 6.0 | 10.0 | 0.00 | 0.33 | 0.18 | 74 | 1008.1 |
| 20260904200731 | 68 | 354 | 6.0 | 9.0 | 0.00 | 0.33 | 0.18 | 74 | 1008.1 |
| 20260904200232 | 68 | 352 | 4.0 | 7.0 | 0.00 | 0.33 | 0.18 | 75 | 1008.1 |
| 20260904195731 | 68 | 347 | 4.0 | 7.0 | 0.00 | 0.33 | 0.18 | 76 | 1008.1 |
| 20260904195231 | 68 | 329 | 2.0 | 4.0 | 0.00 | 0.33 | 0.18 | 76 | 1008.1 |
| 20260904194731 | 67 | 0 | 0.0 | 0.0 | 0.00 | 0.33 | 0.18 | 76 | 1008.1 |
| 20260904194231 | 67 | 0 | 0.0 | 0.0 | 0.00 | 0.33 | 0.18 | 75 | 1008.0 |
| 20260904193733 | 67 | 0 | 0.0 | 0.0 | 0.00 | 0.33 | 0.18 | 74 | 1008.0 |
| 20260904193231 | 67 | 0 | 0.0 | 0.0 | 0.00 | 0.35 | 0.18 | 74 | 1008.0 |
| 20260904192731 | 67 | 0 | 0.0 | 0.0 | 0.00 | 0.35 | 0.18 | 74 | 1008.0 |
| 20260904192231 | 68 | 0 | 0.0 | 0.0 | 0.00 | 0.35 | 0.18 | 74 | 1008.1 |
| 20260904191731 | 68 | 0 | 0.0 | 7.0 | 0.00 | 0.35 | 0.18 | 74 | 1008.0 |
| 20260904191231 | 67 | 331 | 0.0 | 7.0 | 0.00 | 0.35 | 0.18 | 75 | 1008.1 |